Location: Arborea
(39.7744°N, 8.5819°E)
Time: 21:04:37
(UTC+00:00)

CZ-2C DEB - Pass Details

Date: 23 August 2022
Orbit: 681 x 927 km, 97.9° (Epoch: 03 October)

Event Time Altitude Azimuth Distance (km) Brightness Sun altitude
Rises 20:57:56 0° 16° (NNE) 3,313 ? -28.2°
Reaches altitude 10° 21:00:14 10° 19° (NNE) 2,415 ? -28.5°
Enters shadow 21:03:55 43° 40° (NE) 1,171 ? -29.0°
